Location: Riverton
(43.0250°N, 108.3790°W)
Time: 13:13:27
(UTC-06:00)

JAS-2 - Visible Passes

Search period start: 31 October 2014 00:00
Search period end: 09 November 2014 23:00
Orbit: 801 x 1321 km, 98.5° (Epoch: 30 October)

Date Brightness Start Highest point End Pass type
(mag) Time Alt. Az. Time Alt. Az. Time Alt. Az.
31 Oct 13.1 04:46:34 10° ENE 04:48:02 11° E 04:49:29 10° E visible
31 Oct 10.8 06:26:46 10° NNE 06:34:34 60° E 06:42:05 10° S visible
31 Oct 10.6 18:24:11 10° S 18:30:21 57° W 18:37:23 10° NNW visible
01 Nov 12.1 05:32:44 10° NE 05:39:08 27° E 05:45:20 10° SE visible
01 Nov 10.1 07:16:51 10° N 07:24:41 70° WNW 07:32:14 10° SSW visible
01 Nov 12.2 19:15:56 10° SW 19:21:02 25° W 19:26:38 10° NW visible
02 Nov 10.8 05:22:01 10° NNE 05:29:46 57° E 05:37:10 10° S visible
02 Nov 10.5 17:19:09 10° S 17:25:28 61° W 17:32:40 10° NNW visible
03 Nov 12.2 04:28:05 10° NE 04:34:18 25° E 04:40:15 10° SE visible
03 Nov 10.1 06:12:04 10° N 06:19:56 73° WNW 06:27:26 10° SSW visible
03 Nov 12.1 18:10:44 10° SW 18:16:06 27° W 18:22:01 10° NW visible
04 Nov 10.9 05:17:16 10° NNE 05:24:58 54° E 05:32:14 10° S visible
04 Nov 13.1 19:06:43 10° W 19:07:15 10° W 19:07:48 10° WNW visible
05 Nov 12.3 04:23:28 10° NE 04:29:26 23° E 04:35:08 10° SE visible
05 Nov 10.1 06:07:17 10° N 06:15:10 77° WNW 06:22:36 10° SSW visible
05 Nov 12.0 18:05:34 10° SSW 18:11:12 29° W 18:17:24 10° NNW visible
06 Nov 11.0 05:12:32 10° NNE 05:20:09 51° E 05:27:17 10° S visible
06 Nov 13.0 19:00:11 10° W 19:02:18 11° W 19:04:30 10° WNW visible
07 Nov 12.3 04:18:52 10° NE 04:24:34 22° E 04:30:00 10° SE visible
07 Nov 10.1 06:02:30 10° NNE 06:10:24 80° WNW 06:17:46 10° SSW visible
07 Nov 11.9 18:00:26 10° SSW 18:06:18 31° W 18:12:46 10° NNW visible
08 Nov 11.1 05:07:49 10° NNE 05:15:20 47° E 05:22:19 10° S visible
08 Nov 12.9 18:54:26 10° WSW 18:57:22 13° W 19:00:24 10° WNW visible
09 Nov 12.4 04:14:17 10° NE 04:19:41 20° E 04:24:48 10° SE visible
09 Nov 10.1 05:57:44 10° NNE 06:05:37 84° WNW 06:12:53 10° SSW visible
09 Nov 11.8 17:55:19 10° SSW 18:01:25 34° W 18:08:07 10° NNW visible
